Location: Brookfield Center
(41.2406°N, 80.5579°W)
Time: 22:57:41
(UTC+00:00)

Cosmos 1932 - Pass Details

Date: 18 January 2020
Orbit: 921 x 1009 km, 65.0° (Epoch: 18 February)

Event Time Altitude Azimuth Distance (km) Brightness Sun altitude
Rises 00:30:14 0° 204° (SSW) 3,616 7.9 -24.1°
Reaches altitude 10° 00:32:45 10° 203° (SSW) 2,686 7.1 -24.6°
Maximum altitude 00:39:02 75° 119° (ESE) 1,012 4.3 -25.8°
Enters shadow 00:40:12 60° 57° (ENE) 1,118 4.5 -26.0°
